| time (UTC) | temp C | wind direction | speed KPH | gust KPH | rain 1hr cm | rain 24hr cm | rain mn cm | humidity % | barometer mb |
| 20260507182533 | 13 | 258 | 11.3 | 22.5 | 0.00 | 0.41 | 0.00 | 39 | 1018.0 |
| 20260507182033 | 13 | 273 | 11.3 | 22.5 | 0.00 | 0.41 | 0.00 | 39 | 1017.9 |
| 20260507181546 | 13 | 261 | 12.9 | 17.7 | 0.00 | 0.41 | 0.00 | 39 | 1017.9 |
| 20260507181033 | 13 | 247 | 12.9 | 17.7 | 0.00 | 0.41 | 0.00 | 40 | 1017.9 |
| 20260507180533 | 13 | 253 | 14.5 | 17.7 | 0.00 | 0.41 | 0.00 | 44 | 1018.0 |
| 20260507180054 | 12 | 271 | 11.3 | 17.7 | 0.00 | 0.41 | 0.00 | 43 | 1018.0 |
| 20260507175534 | 12 | 254 | 11.3 | 16.1 | 0.00 | 0.43 | 0.00 | 41 | 1018.0 |
| 20260507175032 | 12 | 244 | 9.7 | 20.9 | 0.00 | 0.43 | 0.00 | 47 | 1018.0 |
| 20260507174550 | 12 | 214 | 11.3 | 22.5 | 0.00 | 0.43 | 0.00 | 46 | 1018.1 |
| 20260507174032 | 12 | 236 | 14.5 | 22.5 | 0.00 | 0.43 | 0.00 | 45 | 1018.2 |
| 20260507173532 | 11 | 261 | 16.1 | 22.5 | 0.00 | 0.43 | 0.00 | 44 | 1018.2 |
| 20260507173047 | 11 | 238 | 12.9 | 19.3 | 0.00 | 0.43 | 0.00 | 45 | 1018.3 |
| 20260507172532 | 11 | 248 | 11.3 | 20.9 | 0.00 | 0.43 | 0.00 | 46 | 1018.3 |
| 20260507172031 | 11 | 270 | 12.9 | 20.9 | 0.00 | 0.43 | 0.00 | 45 | 1018.3 |
| 20260507171547 | 11 | 240 | 12.9 | 20.9 | 0.00 | 0.43 | 0.00 | 47 | 1018.4 |
| 20260507171032 | 11 | 244 | 12.9 | 20.9 | 0.00 | 0.43 | 0.00 | 45 | 1018.4 |
| 20260507170537 | 11 | 246 | 11.3 | 20.9 | 0.00 | 0.43 | 0.00 | 45 | 1018.5 |
| 20260507170054 | 11 | 232 | 14.5 | 20.9 | 0.00 | 0.43 | 0.00 | 43 | 1018.5 |
| 20260507165538 | 11 | 224 | 16.1 | 20.9 | 0.00 | 0.43 | 0.00 | 42 | 1018.5 |
| 20260507165034 | 10 | 207 | 9.7 | 16.1 | 0.00 | 0.43 | 0.00 | 44 | 1018.7 |
| 20260507164544 | 10 | 234 | 9.7 | 17.7 | 0.00 | 0.43 | 0.00 | 44 | 1018.7 |
| 20260507164031 | 10 | 228 | 12.9 | 17.7 | 0.00 | 0.43 | 0.00 | 45 | 1018.7 |
| 20260507163532 | 10 | 225 | 11.3 | 17.7 | 0.00 | 0.43 | 0.00 | 46 | 1018.9 |
| 20260507163052 | 10 | 210 | 6.4 | 14.5 | 0.00 | 0.43 | 0.00 | 47 | 1018.9 |
| 20260507162534 | 10 | 229 | 6.4 | 14.5 | 0.00 | 0.43 | 0.00 | 48 | 1018.9 |
| 20260507162035 | 9 | 221 | 9.7 | 16.1 | 0.00 | 0.43 | 0.00 | 52 | 1018.9 |
| 20260507161548 | 8 | 220 | 11.3 | 17.7 | 0.00 | 0.43 | 0.00 | 52 | 1018.9 |
| 20260507161032 | 8 | 217 | 12.9 | 17.7 | 0.00 | 0.43 | 0.00 | 52 | 1019.0 |
| 20260507160532 | 8 | 217 | 12.9 | 17.7 | 0.00 | 0.43 | 0.00 | 54 | 1019.1 |
| 20260507160047 | 8 | 201 | 12.9 | 17.7 | 0.00 | 0.43 | 0.00 | 53 | 1019.1 |
| 20260507155533 | 8 | 211 | 12.9 | 17.7 | 0.00 | 0.46 | 0.00 | 53 | 1019.1 |
| 20260507155031 | 8 | 220 | 11.3 | 17.7 | 0.00 | 0.46 | 0.00 | 52 | 1019.1 |
| 20260507154548 | 8 | 220 | 11.3 | 17.7 | 0.00 | 0.46 | 0.00 | 51 | 1019.1 |
| 20260507154032 | 7 | 222 | 11.3 | 17.7 | 0.00 | 0.46 | 0.00 | 52 | 1019.1 |
| 20260507153534 | 7 | 224 | 9.7 | 16.1 | 0.00 | 0.46 | 0.00 | 52 | 1019.1 |
| 20260507153046 | 7 | 224 | 9.7 | 17.7 | 0.00 | 0.46 | 0.00 | 55 | 1019.0 |
| 20260507152533 | 7 | 217 | 12.9 | 17.7 | 0.00 | 0.46 | 0.00 | 55 | 1019.0 |
| 20260507152031 | 7 | 219 | 11.3 | 16.1 | 0.00 | 0.46 | 0.00 | 56 | 1018.9 |
| 20260507151546 | 6 | 210 | 11.3 | 19.3 | 0.00 | 0.46 | 0.00 | 56 | 1018.9 |
| 20260507151034 | 6 | 214 | 12.9 | 19.3 | 0.00 | 0.46 | 0.00 | 56 | 1018.9 |
| 20260507150533 | 6 | 232 | 9.7 | 16.1 | 0.00 | 0.46 | 0.00 | 57 | 1019.1 |
| 20260507150051 | 6 | 223 | 11.3 | 17.7 | 0.00 | 0.46 | 0.00 | 57 | 1019.0 |
| 20260507145534 | 6 | 217 | 12.9 | 17.7 | 0.00 | 0.46 | 0.00 | 57 | 1018.9 |
| 20260507145033 | 6 | 221 | 11.3 | 16.1 | 0.00 | 0.46 | 0.00 | 57 | 1018.9 |
| 20260507144549 | 6 | 218 | 9.7 | 14.5 | 0.00 | 0.46 | 0.00 | 56 | 1018.9 |
| 20260507144036 | 5 | 227 | 8.0 | 14.5 | 0.00 | 0.46 | 0.00 | 56 | 1019.0 |
| 20260507143533 | 5 | 207 | 9.7 | 16.1 | 0.00 | 0.46 | 0.00 | 58 | 1019.0 |
| 20260507143048 | 5 | 221 | 12.9 | 16.1 | 0.00 | 0.46 | 0.00 | 58 | 1019.0 |
| 20260507142534 | 5 | 222 | 11.3 | 17.7 | 0.00 | 0.46 | 0.00 | 58 | 1018.9 |
| 20260507142033 | 5 | 223 | 11.3 | 17.7 | 0.00 | 0.46 | 0.00 | 58 | 1019.0 |
| 20260507141546 | 4 | 219 | 11.3 | 16.1 | 0.00 | 0.46 | 0.00 | 58 | 1019.0 |
| 20260507141033 | 4 | 217 | 11.3 | 16.1 | 0.00 | 0.46 | 0.00 | 58 | 1019.0 |
| 20260507140533 | 3 | 219 | 11.3 | 14.5 | 0.00 | 0.46 | 0.00 | 58 | 1018.9 |
| 20260507140107 | 3 | 218 | 11.3 | 16.1 | 0.00 | 0.46 | 0.00 | 57 | 1019.0 |
| 20260507135532 | 3 | 204 | 11.3 | 16.1 | 0.00 | 0.46 | 0.00 | 57 | 1019.0 |
| 20260507135033 | 3 | 199 | 11.3 | 17.7 | 0.00 | 0.46 | 0.00 | 58 | 1018.9 |
| 20260507134544 | 3 | 200 | 12.9 | 17.7 | 0.00 | 0.46 | 0.00 | 58 | 1018.9 |
| 20260507134032 | 3 | 216 | 12.9 | 17.7 | 0.00 | 0.46 | 0.00 | 58 | 1018.8 |
| 20260507133532 | 2 | 212 | 12.9 | 17.7 | 0.00 | 0.46 | 0.00 | 58 | 1018.7 |
| 20260507133051 | 2 | 207 | 12.9 | 17.7 | 0.00 | 0.46 | 0.00 | 58 | 1018.6 |
| 20260507132534 | 2 | 207 | 14.5 | 17.7 | 0.00 | 0.46 | 0.00 | 58 | 1018.6 |
| 20260507132034 | 2 | 204 | 12.9 | 19.3 | 0.00 | 0.46 | 0.00 | 59 | 1018.6 |
| 20260507131548 | 2 | 204 | 14.5 | 19.3 | 0.00 | 0.46 | 0.00 | 58 | 1018.4 |
| 20260507131033 | 1 | 219 | 14.5 | 19.3 | 0.00 | 0.46 | 0.00 | 59 | 1018.5 |
| 20260507130533 | 1 | 213 | 16.1 | 22.5 | 0.00 | 0.46 | 0.00 | 60 | 1018.4 |
| 20260507130047 | 1 | 202 | 14.5 | 22.5 | 0.00 | 0.46 | 0.00 | 60 | 1018.4 |
| 20260507125534 | 1 | 203 | 14.5 | 20.9 | 0.00 | 0.46 | 0.00 | 60 | 1018.3 |
| 20260507125034 | 1 | 232 | 14.5 | 20.9 | 0.00 | 0.46 | 0.00 | 59 | 1018.2 |
| 20260507124547 | 1 | 211 | 14.5 | 22.5 | 0.00 | 0.46 | 0.00 | 59 | 1018.1 |
| 20260507124033 | 1 | 222 | 17.7 | 22.5 | 0.00 | 0.46 | 0.00 | 59 | 1018.0 |
| 20260507123534 | 1 | 201 | 17.7 | 22.5 | 0.00 | 0.46 | 0.00 | 59 | 1017.9 |
| 20260507123046 | 1 | 205 | 17.7 | 22.5 | 0.00 | 0.46 | 0.00 | 58 | 1017.8 |
| 20260507122531 | 1 | 203 | 17.7 | 22.5 | 0.00 | 0.46 | 0.00 | 58 | 1017.7 |
| 20260507122031 | 1 | 217 | 19.3 | 22.5 | 0.00 | 0.46 | 0.00 | 58 | 1017.7 |
| 20260507121545 | 1 | 213 | 19.3 | 22.5 | 0.00 | 0.46 | 0.00 | 59 | 1017.8 |
| 20260507121034 | 1 | 212 | 17.7 | 25.7 | 0.00 | 0.46 | 0.00 | 58 | 1017.8 |
| 20260507120533 | 1 | 205 | 19.3 | 24.1 | 0.00 | 0.46 | 0.00 | 58 | 1017.9 |
| 20260507120050 | 1 | 200 | 17.7 | 24.1 | 0.00 | 0.46 | 0.00 | 58 | 1017.8 |
| 20260507115532 | 0 | 216 | 17.7 | 22.5 | 0.00 | 0.46 | 0.00 | 58 | 1017.8 |
| 20260507115033 | 0 | 196 | 16.1 | 20.9 | 0.00 | 0.46 | 0.00 | 60 | 1017.9 |
| 20260507114548 | 0 | 203 | 16.1 | 22.5 | 0.00 | 0.46 | 0.00 | 60 | 1017.8 |
| 20260507114034 | 0 | 211 | 16.1 | 22.5 | 0.00 | 0.46 | 0.00 | 59 | 1017.7 |
| 20260507113532 | 0 | 205 | 16.1 | 19.3 | 0.00 | 0.46 | 0.00 | 59 | 1017.8 |
| 20260507113048 | 0 | 196 | 14.5 | 22.5 | 0.00 | 0.46 | 0.00 | 58 | 1017.7 |
| 20260507112536 | 1 | 212 | 16.1 | 24.1 | 0.00 | 0.46 | 0.00 | 57 | 1017.8 |
| 20260507112036 | 1 | 219 | 17.7 | 24.1 | 0.00 | 0.46 | 0.00 | 57 | 1017.7 |
| 20260507111548 | 1 | 215 | 17.7 | 22.5 | 0.00 | 0.46 | 0.00 | 57 | 1017.6 |
| 20260507111031 | 0 | 215 | 16.1 | 22.5 | 0.00 | 0.46 | 0.00 | 58 | 1017.7 |
| 20260507110532 | 0 | 210 | 16.1 | 22.5 | 0.00 | 0.46 | 0.00 | 59 | 1017.7 |
| 20260507110051 | 0 | 214 | 16.1 | 22.5 | 0.00 | 0.46 | 0.00 | 60 | 1017.7 |
| 20260507105532 | 0 | 216 | 14.5 | 22.5 | 0.00 | 0.46 | 0.00 | 60 | 1017.8 |
| 20260507105031 | 0 | 206 | 16.1 | 22.5 | 0.00 | 0.46 | 0.00 | 61 | 1017.8 |
| 20260507104556 | 0 | 220 | 16.1 | 22.5 | 0.00 | 0.46 | 0.00 | 60 | 1017.7 |
| 20260507104033 | 0 | 199 | 16.1 | 20.9 | 0.00 | 0.46 | 0.00 | 60 | 1017.8 |
| 20260507103532 | 0 | 211 | 16.1 | 20.9 | 0.00 | 0.46 | 0.00 | 60 | 1017.8 |
| 20260507103049 | 0 | 212 | 16.1 | 20.9 | 0.00 | 0.46 | 0.00 | 60 | 1017.8 |
| 20260507102532 | 0 | 209 | 16.1 | 20.9 | 0.00 | 0.46 | 0.00 | 60 | 1017.9 |
| 20260507102032 | 0 | 201 | 16.1 | 17.7 | 0.00 | 0.46 | 0.00 | 61 | 1017.9 |
| 20260507101601 | 0 | 214 | 12.9 | 16.1 | 0.00 | 0.46 | 0.00 | 62 | 1017.9 |
| 20260507101031 | 0 | 201 | 12.9 | 17.7 | 0.00 | 0.46 | 0.00 | 62 | 1018.0 |
| 20260507100531 | 0 | 209 | 12.9 | 19.3 | 0.00 | 0.46 | 0.00 | 62 | 1017.9 |
| 20260507100048 | 0 | 205 | 14.5 | 19.3 | 0.00 | 0.46 | 0.00 | 63 | 1018.0 |
| 20260507095533 | 0 | 217 | 12.9 | 17.7 | 0.00 | 0.46 | 0.00 | 63 | 1017.9 |
| 20260507095031 | 0 | 196 | 11.3 | 14.5 | 0.00 | 0.46 | 0.00 | 63 | 1018.1 |
| 20260507094556 | 0 | 216 | 11.3 | 19.3 | 0.00 | 0.46 | 0.00 | 63 | 1018.1 |
| 20260507094031 | 0 | 205 | 12.9 | 22.5 | 0.00 | 0.46 | 0.00 | 63 | 1018.0 |
| 20260507093531 | 0 | 190 | 16.1 | 22.5 | 0.00 | 0.46 | 0.00 | 64 | 1018.0 |
| 20260507093046 | 0 | 199 | 16.1 | 24.1 | 0.00 | 0.46 | 0.00 | 64 | 1018.0 |
| 20260507092534 | 0 | 213 | 17.7 | 24.1 | 0.00 | 0.46 | 0.00 | 65 | 1018.0 |
| 20260507092034 | 0 | 207 | 11.3 | 19.3 | 0.00 | 0.46 | 0.00 | 66 | 1018.1 |
| 20260507091602 | 0 | 194 | 12.9 | 19.3 | 0.00 | 0.46 | 0.00 | 67 | 1018.2 |
| 20260507091031 | 0 | 198 | 12.9 | 22.5 | 0.00 | 0.46 | 0.00 | 67 | 1018.2 |
| 20260507090534 | 0 | 200 | 16.1 | 22.5 | 0.00 | 0.46 | 0.00 | 67 | 1018.2 |
| 20260507090107 | 0 | 213 | 14.5 | 20.9 | 0.00 | 0.46 | 0.00 | 69 | 1018.2 |
| 20260507085534 | -1 | 202 | 14.5 | 22.5 | 0.00 | 0.46 | 0.00 | 70 | 1018.2 |
| 20260507085031 | -1 | 212 | 14.5 | 22.5 | 0.00 | 0.46 | 0.00 | 69 | 1018.2 |
| 20260507084547 | 0 | 216 | 12.9 | 19.3 | 0.00 | 0.46 | 0.00 | 68 | 1018.3 |
| 20260507084033 | 0 | 202 | 11.3 | 16.1 | 0.00 | 0.46 | 0.00 | 67 | 1018.3 |
| 20260507083537 | 0 | 194 | 11.3 | 16.1 | 0.00 | 0.46 | 0.00 | 68 | 1018.3 |
| 20260507083048 | -1 | 198 | 9.7 | 16.1 | 0.00 | 0.46 | 0.00 | 69 | 1018.3 |
| 20260507082533 | 0 | 182 | 11.3 | 16.1 | 0.00 | 0.46 | 0.00 | 69 | 1018.3 |
| 20260507082030 | -1 | 198 | 11.3 | 16.1 | 0.00 | 0.46 | 0.00 | 70 | 1018.3 |
| 20260507081557 | -1 | 194 | 11.3 | 16.1 | 0.00 | 0.46 | 0.00 | 72 | 1018.3 |
| 20260507081031 | -1 | 198 | 9.7 | 14.5 | 0.00 | 0.46 | 0.00 | 73 | 1018.4 |
| 20260507080531 | -1 | 211 | 9.7 | 12.9 | 0.00 | 0.46 | 0.00 | 74 | 1018.4 |
| 20260507080044 | -1 | 205 | 9.7 | 12.9 | 0.00 | 0.46 | 0.00 | 75 | 1018.5 |
| 20260507075531 | -1 | 205 | 9.7 | 14.5 | 0.00 | 0.46 | 0.00 | 76 | 1018.5 |
| 20260507075033 | -1 | 205 | 9.7 | 16.1 | 0.00 | 0.46 | 0.00 | 77 | 1018.6 |
| 20260507074552 | -1 | 209 | 11.3 | 17.7 | 0.00 | 0.46 | 0.00 | 78 | 1018.6 |
| 20260507074033 | -1 | 210 | 12.9 | 17.7 | 0.00 | 0.46 | 0.00 | 79 | 1018.7 |
| 20260507073531 | -1 | 208 | 11.3 | 14.5 | 0.00 | 0.46 | 0.00 | 78 | 1018.8 |
| 20260507073059 | -1 | 215 | 11.3 | 16.1 | 0.00 | 0.46 | 0.00 | 78 | 1018.8 |
| 20260507072534 | -1 | 208 | 11.3 | 16.1 | 0.00 | 0.46 | 0.00 | 78 | 1018.9 |
| 20260507072034 | -1 | 202 | 12.9 | 19.3 | 0.00 | 0.46 | 0.00 | 79 | 1018.9 |
| 20260507071548 | -1 | 205 | 12.9 | 19.3 | 0.00 | 0.46 | 0.00 | 78 | 1018.9 |
| 20260507071034 | -1 | 225 | 12.9 | 17.7 | 0.00 | 0.46 | 0.00 | 78 | 1018.9 |
| 20260507070534 | -1 | 212 | 11.3 | 20.9 | 0.00 | 0.46 | 0.00 | 78 | 1018.9 |
| 20260507070135 | -1 | 209 | 14.5 | 20.9 | 0.00 | 0.46 | 0.00 | 78 | 1019.0 |
| 20260507065534 | -1 | 204 | 14.5 | 19.3 | 0.00 | 0.46 | 0.00 | 78 | 1019.0 |
| 20260507065033 | -1 | 200 | 12.9 | 17.7 | 0.00 | 0.46 | 0.00 | 79 | 1019.1 |
| 20260507064551 | -1 | 211 | 12.9 | 17.7 | 0.00 | 0.46 | 0.00 | 79 | 1019.1 |
| 20260507064034 | -1 | 212 | 11.3 | 17.7 | 0.00 | 0.46 | 0.00 | 80 | 1019.1 |
| 20260507063532 | -1 | 204 | 12.9 | 17.7 | 0.00 | 0.46 | 0.00 | 80 | 1019.1 |
| 20260507063047 | -1 | 207 | 12.9 | 17.7 | 0.00 | 0.46 | 0.00 | 80 | 1019.0 |
| 20260507062530 | -1 | 203 | 12.9 | 19.3 | 0.00 | 0.46 | 0.00 | 81 | 1019.0 |
| 20260507062030 | -1 | 197 | 12.9 | 19.3 | 0.00 | 0.46 | 0.00 | 81 | 1019.0 |
| 20260507061547 | -1 | 222 | 14.5 | 19.3 | 0.00 | 0.46 | 0.00 | 81 | 1019.1 |
| 20260507061030 | -1 | 191 | 12.9 | 19.3 | 0.00 | 0.46 | 0.00 | 81 | 1019.1 |
| 20260507060531 | -1 | 205 | 14.5 | 19.3 | 0.00 | 0.46 | 0.00 | 82 | 1019.1 |
| 20260507060047 | -1 | 211 | 12.9 | 19.3 | 0.00 | 0.46 | 0.00 | 82 | 1019.1 |
| 20260507055530 | -1 | 205 | 12.9 | 19.3 | 0.00 | 0.46 | 0.46 | 82 | 1019.3 |
| 20260507055033 | -1 | 188 | 12.9 | 20.9 | 0.00 | 0.46 | 0.46 | 82 | 1019.1 |
| 20260507054550 | -1 | 211 | 14.5 | 24.1 | 0.00 | 0.46 | 0.46 | 82 | 1019.1 |
| 20260507054032 | -1 | 202 | 14.5 | 24.1 | 0.00 | 0.46 | 0.46 | 82 | 1019.1 |
| 20260507053533 | 0 | 200 | 14.5 | 20.9 | 0.00 | 0.46 | 0.46 | 82 | 1019.1 |
| 20260507053044 | 0 | 197 | 14.5 | 24.1 | 0.00 | 0.46 | 0.46 | 82 | 1019.1 |
| 20260507052533 | 0 | 206 | 14.5 | 24.1 | 0.00 | 0.46 | 0.46 | 82 | 1019.0 |
| 20260507052031 | 0 | 213 | 16.1 | 22.5 | 0.00 | 0.46 | 0.46 | 82 | 1018.9 |
| 20260507051549 | 0 | 201 | 14.5 | 19.3 | 0.00 | 0.46 | 0.46 | 83 | 1018.9 |
| 20260507051033 | -1 | 194 | 16.1 | 19.3 | 0.00 | 0.46 | 0.46 | 84 | 1018.9 |
| 20260507050533 | -1 | 186 | 12.9 | 19.3 | 0.00 | 0.46 | 0.46 | 84 | 1019.1 |
| 20260507050048 | -1 | 197 | 12.9 | 19.3 | 0.00 | 0.46 | 0.46 | 84 | 1019.1 |
| 20260507045534 | -1 | 202 | 14.5 | 17.7 | 0.00 | 0.46 | 0.46 | 84 | 1019.1 |
| 20260507045037 | -1 | 188 | 12.9 | 17.7 | 0.00 | 0.46 | 0.46 | 84 | 1019.2 |
| 20260507044549 | -1 | 203 | 12.9 | 17.7 | 0.00 | 0.46 | 0.46 | 84 | 1019.1 |
| 20260507044032 | -1 | 202 | 11.3 | 19.3 | 0.00 | 0.46 | 0.46 | 84 | 1019.1 |
| 20260507043531 | -1 | 206 | 14.5 | 19.3 | 0.00 | 0.46 | 0.46 | 84 | 1019.1 |
| 20260507043043 | -1 | 190 | 12.9 | 19.3 | 0.00 | 0.46 | 0.46 | 85 | 1018.9 |
| 20260507042530 | -1 | 188 | 12.9 | 19.3 | 0.00 | 0.46 | 0.46 | 84 | 1019.0 |
| 20260507042031 | -1 | 194 | 14.5 | 22.5 | 0.00 | 0.46 | 0.46 | 85 | 1018.7 |
| 20260507041549 | -1 | 183 | 16.1 | 24.1 | 0.00 | 0.46 | 0.46 | 84 | 1018.8 |
| 20260507041033 | -1 | 173 | 17.7 | 24.1 | 0.00 | 0.46 | 0.46 | 85 | 1018.9 |
| 20260507040531 | -1 | 179 | 19.3 | 27.4 | 0.00 | 0.46 | 0.46 | 84 | 1018.8 |
| 20260507040051 | 0 | 188 | 19.3 | 27.4 | 0.00 | 0.46 | 0.46 | 84 | 1018.9 |
| 20260507035533 | -1 | 183 | 19.3 | 25.7 | 0.00 | 0.46 | 0.46 | 84 | 1018.9 |
| 20260507035034 | -1 | 180 | 17.7 | 25.7 | 0.00 | 0.46 | 0.46 | 83 | 1018.9 |
| 20260507034549 | -1 | 180 | 17.7 | 25.7 | 0.00 | 0.46 | 0.46 | 83 | 1018.9 |
| 20260507034033 | -1 | 180 | 19.3 | 25.7 | 0.00 | 0.46 | 0.46 | 83 | 1018.9 |
| 20260507033537 | -1 | 179 | 19.3 | 24.1 | 0.00 | 0.46 | 0.46 | 83 | 1018.8 |
| 20260507033048 | 0 | 173 | 19.3 | 24.1 | 0.00 | 0.46 | 0.46 | 83 | 1018.8 |
| 20260507032534 | 0 | 185 | 16.1 | 22.5 | 0.00 | 0.46 | 0.46 | 83 | 1018.9 |
| 20260507032033 | 0 | 187 | 17.7 | 20.9 | 0.00 | 0.46 | 0.46 | 83 | 1018.8 |
| 20260507031544 | 0 | 196 | 16.1 | 19.3 | 0.00 | 0.46 | 0.46 | 84 | 1018.7 |
| 20260507031034 | -1 | 175 | 14.5 | 19.3 | 0.00 | 0.46 | 0.46 | 84 | 1018.7 |
| 20260507030531 | -1 | 179 | 16.1 | 19.3 | 0.00 | 0.46 | 0.46 | 84 | 1018.6 |
| 20260507030056 | -1 | 178 | 12.9 | 17.7 | 0.00 | 0.46 | 0.46 | 85 | 1018.6 |
| 20260507025532 | -1 | 157 | 11.3 | 16.1 | 0.00 | 0.46 | 0.46 | 84 | 1018.6 |
| 20260507025035 | -1 | 153 | 12.9 | 14.5 | 0.00 | 0.46 | 0.46 | 83 | 1018.6 |
| 20260507024548 | 0 | 155 | 11.3 | 14.5 | 0.00 | 0.46 | 0.46 | 82 | 1018.7 |
| 20260507024035 | 0 | 155 | 11.3 | 17.7 | 0.00 | 0.46 | 0.46 | 81 | 1018.6 |
| 20260507023537 | 0 | 163 | 12.9 | 19.3 | 0.00 | 0.46 | 0.46 | 81 | 1018.6 |
| 20260507023048 | 0 | 163 | 16.1 | 19.3 | 0.00 | 0.46 | 0.46 | 81 | 1018.6 |
| 20260507022532 | 0 | 171 | 14.5 | 17.7 | 0.00 | 0.46 | 0.46 | 81 | 1018.6 |
| 20260507022032 | 0 | 167 | 12.9 | 17.7 | 0.00 | 0.46 | 0.46 | 81 | 1018.6 |
| 20260507021602 | 0 | 163 | 12.9 | 17.7 | 0.00 | 0.46 | 0.46 | 81 | 1018.5 |
| 20260507021030 | 0 | 158 | 12.9 | 16.1 | 0.00 | 0.46 | 0.46 | 82 | 1018.5 |
| 20260507020532 | 0 | 161 | 11.3 | 14.5 | 0.00 | 0.46 | 0.46 | 81 | 1018.6 |
| 20260507020056 | 0 | 158 | 9.7 | 14.5 | 0.00 | 0.46 | 0.46 | 81 | 1018.5 |
| 20260507015531 | 0 | 158 | 8.0 | 9.7 | 0.00 | 0.46 | 0.46 | 80 | 1018.5 |
| 20260507015031 | 0 | 182 | 6.4 | 8.0 | 0.00 | 0.46 | 0.46 | 79 | 1018.5 |
| 20260507014609 | 0 | 155 | 3.2 | 9.7 | 0.00 | 0.46 | 0.46 | 79 | 1018.5 |
| 20260507014030 | 0 | 157 | 4.8 | 9.7 | 0.00 | 0.46 | 0.46 | 79 | 1018.5 |
| 20260507013531 | 0 | 160 | 4.8 | 4.8 | 0.00 | 0.46 | 0.46 | 78 | 1018.5 |
| 20260507013056 | 0 | 155 | 3.2 | 4.8 | 0.00 | 0.46 | 0.46 | 78 | 1018.6 |
| 20260507012531 | 0 | 155 | 3.2 | 4.8 | 0.00 | 0.46 | 0.46 | 78 | 1018.6 |
| 20260507012034 | 0 | 155 | 3.2 | 4.8 | 0.00 | 0.46 | 0.46 | 78 | 1018.6 |
| 20260507011548 | 0 | 155 | 4.8 | 4.8 | 0.00 | 0.46 | 0.46 | 78 | 1018.5 |
| 20260507011030 | 0 | 155 | 3.2 | 4.8 | 0.00 | 0.46 | 0.46 | 77 | 1018.5 |
| 20260507010533 | 0 | 155 | 3.2 | 4.8 | 0.00 | 0.46 | 0.46 | 77 | 1018.4 |
| 20260507010100 | 0 | 155 | 3.2 | 4.8 | 0.00 | 0.46 | 0.46 | 77 | 1018.5 |
| 20260507005531 | 0 | 155 | 1.6 | 4.8 | 0.00 | 0.46 | 0.46 | 77 | 1018.6 |
| 20260507005033 | 0 | 155 | 1.6 | 6.4 | 0.00 | 0.46 | 0.46 | 76 | 1018.5 |
| 20260507004547 | 0 | 155 | 3.2 | 6.4 | 0.00 | 0.46 | 0.46 | 76 | 1018.5 |
| 20260507004030 | 0 | 155 | 4.8 | 6.4 | 0.00 | 0.46 | 0.46 | 76 | 1018.5 |
| 20260507003531 | 0 | 152 | 4.8 | 6.4 | 0.00 | 0.46 | 0.46 | 76 | 1018.5 |
| 20260507003041 | 0 | 150 | 4.8 | 8.0 | 0.00 | 0.46 | 0.46 | 75 | 1018.5 |
| 20260507002532 | 0 | 147 | 6.4 | 6.4 | 0.00 | 0.46 | 0.46 | 75 | 1018.5 |
| 20260507002033 | 0 | 144 | 4.8 | 8.0 | 0.00 | 0.46 | 0.46 | 74 | 1018.5 |
| 20260507001552 | 0 | 150 | 6.4 | 9.7 | 0.00 | 0.46 | 0.46 | 74 | 1018.5 |
| 20260507001030 | 0 | 151 | 6.4 | 12.9 | 0.00 | 0.46 | 0.46 | 75 | 1018.5 |
| 20260507000531 | 0 | 173 | 6.4 | 12.9 | 0.00 | 0.46 | 0.46 | 73 | 1018.6 |
| 20260507000048 | 0 | 170 | 8.0 | 12.9 | 0.00 | 0.46 | 0.46 | 73 | 1018.6 |
| 20260506235531 | 0 | 157 | 8.0 | 11.3 | 0.00 | 0.48 | 0.46 | 74 | 1018.5 |
| 20260506235030 | 0 | 137 | 4.8 | 9.7 | 0.00 | 0.48 | 0.46 | 74 | 1018.6 |
| 20260506234547 | 0 | 153 | 6.4 | 9.7 | 0.00 | 0.48 | 0.46 | 73 | 1018.6 |
| 20260506234034 | 0 | 128 | 4.8 | 6.4 | 0.00 | 0.48 | 0.46 | 74 | 1018.7 |
| 20260506233532 | 0 | 144 | 4.8 | 6.4 | 0.00 | 0.48 | 0.46 | 75 | 1018.7 |
| 20260506233049 | 0 | 110 | 4.8 | 6.4 | 0.00 | 0.48 | 0.46 | 75 | 1018.7 |
| 20260506232534 | 0 | 141 | 3.2 | 6.4 | 0.00 | 0.48 | 0.46 | 73 | 1018.7 |
| 20260506232030 | 0 | 136 | 3.2 | 4.8 | 0.00 | 0.48 | 0.46 | 73 | 1018.6 |
| 20260506231546 | 0 | 135 | 3.2 | 6.4 | 0.00 | 0.48 | 0.46 | 73 | 1018.8 |
| 20260506231035 | 0 | 135 | 4.8 | 9.7 | 0.00 | 0.48 | 0.46 | 73 | 1018.7 |
| 20260506230531 | 1 | 117 | 4.8 | 9.7 | 0.00 | 0.48 | 0.46 | 72 | 1018.7 |
| 20260506225531 | 1 | 205 | 1.6 | 6.4 | 0.00 | 0.48 | 0.46 | 72 | 1018.9 |
| 20260506225035 | 1 | 205 | 3.2 | 6.4 | 0.00 | 0.48 | 0.46 | 72 | 1018.8 |
| 20260506224542 | 1 | 161 | 0.0 | 4.8 | 0.00 | 0.48 | 0.46 | 74 | 1018.7 |
| 20260506224032 | 0 | 179 | 1.6 | 6.4 | 0.00 | 0.48 | 0.46 | 74 | 1018.8 |
| 20260506223531 | 0 | 123 | 4.8 | 8.0 | 0.00 | 0.48 | 0.46 | 77 | 1018.7 |
| 20260506223047 | 0 | 144 | 4.8 | 8.0 | 0.00 | 0.48 | 0.46 | 76 | 1018.9 |
| 20260506222534 | 0 | 200 | 4.8 | 9.7 | 0.00 | 0.48 | 0.46 | 77 | 1018.9 |
| 20260506222033 | 0 | 148 | 4.8 | 9.7 | 0.00 | 0.48 | 0.46 | 78 | 1019.0 |
| 20260506221548 | 0 | 169 | 4.8 | 8.0 | 0.00 | 0.48 | 0.46 | 77 | 1019.0 |
| 20260506221034 | 0 | 236 | 4.8 | 9.7 | 0.00 | 0.48 | 0.46 | 76 | 1019.0 |
| 20260506220533 | 0 | 211 | 6.4 | 9.7 | 0.00 | 0.48 | 0.46 | 75 | 1019.0 |
| 20260506220051 | 0 | 170 | 4.8 | 9.7 | 0.00 | 0.48 | 0.46 | 77 | 1019.1 |
| 20260506215534 | 0 | 210 | 1.6 | 9.7 | 0.00 | 0.48 | 0.46 | 80 | 1019.0 |
| 20260506215034 | 0 | 113 | 4.8 | 9.7 | 0.00 | 0.48 | 0.46 | 80 | 1019.1 |
| 20260506214547 | 0 | 117 | 4.8 | 6.4 | 0.00 | 0.48 | 0.46 | 79 | 1019.2 |
| 20260506214033 | 1 | 160 | 3.2 | 6.4 | 0.00 | 0.48 | 0.46 | 77 | 1019.3 |
| 20260506213535 | 1 | 213 | 0.0 | 1.6 | 0.00 | 0.48 | 0.46 | 80 | 1019.4 |
| 20260506213042 | 1 | 0 | 0.0 | 3.2 | 0.00 | 0.48 | 0.46 | 81 | 1019.4 |
| 20260506212533 | 0 | 0 | 0.0 | 3.2 | 0.00 | 0.48 | 0.46 | 80 | 1019.5 |
| 20260506212031 | 0 | 109 | 1.6 | 3.2 | 0.00 | 0.48 | 0.46 | 79 | 1019.4 |
| 20260506211547 | 1 | 109 | 1.6 | 3.2 | 0.00 | 0.48 | 0.46 | 81 | 1019.4 |
| 20260506211034 | 0 | 0 | 0.0 | 6.4 | 0.00 | 0.48 | 0.46 | 83 | 1019.4 |
| 20260506210537 | 0 | 87 | 1.6 | 6.4 | 0.00 | 0.48 | 0.46 | 84 | 1019.3 |
| 20260506210051 | 0 | 69 | 3.2 | 6.4 | 0.00 | 0.48 | 0.46 | 83 | 1019.3 |
| 20260506205533 | 0 | 99 | 3.2 | 6.4 | 0.00 | 0.53 | 0.46 | 82 | 1019.3 |
| 20260506205030 | 0 | 69 | 3.2 | 8.0 | 0.03 | 0.53 | 0.46 | 83 | 1019.4 |
| 20260506204547 | 0 | 34 | 3.2 | 8.0 | 0.03 | 0.53 | 0.46 | 84 | 1019.5 |
| 20260506204033 | 0 | 63 | 4.8 | 8.0 | 0.03 | 0.53 | 0.46 | 84 | 1019.6 |
| 20260506203533 | 0 | 86 | 4.8 | 11.3 | 0.05 | 0.53 | 0.46 | 83 | 1019.7 |
| 20260506203053 | 0 | 63 | 4.8 | 11.3 | 0.05 | 0.53 | 0.46 | 84 | 1019.7 |
| 20260506202533 | 0 | 75 | 6.4 | 11.3 | 0.08 | 0.53 | 0.46 | 84 | 1019.7 |
| 20260506202033 | 0 | 86 | 6.4 | 12.9 | 0.08 | 0.53 | 0.46 | 85 | 1019.8 |
| 20260506201610 | 0 | 65 | 6.4 | 12.9 | 0.08 | 0.53 | 0.46 | 85 | 1019.9 |
| 20260506201037 | 0 | 84 | 8.0 | 12.9 | 0.10 | 0.53 | 0.46 | 84 | 1019.8 |
| 20260506200533 | 0 | 36 | 8.0 | 14.5 | 0.13 | 0.53 | 0.46 | 86 | 1019.7 |
| 20260506200052 | 0 | 45 | 9.7 | 14.5 | 0.13 | 0.53 | 0.46 | 86 | 1019.7 |
| 20260506195531 | 0 | 81 | 8.0 | 14.5 | 0.15 | 0.64 | 0.46 | 86 | 1019.7 |
| 20260506195032 | 0 | 34 | 8.0 | 16.1 | 0.15 | 0.61 | 0.43 | 87 | 1019.7 |
| 20260506194552 | -1 | 68 | 9.7 | 19.3 | 0.18 | 0.61 | 0.43 | 87 | 1019.7 |
| 20260506194030 | -1 | 44 | 9.7 | 19.3 | 0.20 | 0.61 | 0.43 | 87 | 1019.8 |
| 20260506193535 | -1 | 28 | 11.3 | 19.3 | 0.20 | 0.58 | 0.41 | 88 | 1019.7 |
| 20260506193051 | -1 | 35 | 12.9 | 19.3 | 0.23 | 0.58 | 0.41 | 88 | 1019.7 |
| 20260506192530 | -1 | 47 | 12.9 | 19.3 | 0.23 | 0.56 | 0.38 | 88 | 1019.7 |
| 20260506192031 | -1 | 64 | 11.3 | 17.7 | 0.25 | 0.56 | 0.38 | 88 | 1019.7 |
| 20260506191547 | -1 | 44 | 9.7 | 19.3 | 0.28 | 0.56 | 0.38 | 90 | 1019.7 |
| 20260506191036 | -1 | 32 | 12.9 | 19.3 | 0.28 | 0.53 | 0.36 | 89 | 1019.7 |
| 20260506190533 | -1 | 17 | 16.1 | 19.3 | 0.25 | 0.51 | 0.33 | 89 | 1019.7 |
| 20260506190047 | -1 | 26 | 16.1 | 19.3 | 0.28 | 0.51 | 0.33 | 88 | 1019.7 |
| 20260506185532 | -1 | 27 | 12.9 | 19.3 | 0.25 | 0.56 | 0.30 | 88 | 1019.7 |
| 20260506185031 | -1 | 51 | 11.3 | 19.3 | 0.23 | 0.53 | 0.28 | 88 | 1019.7 |
| 20260506184551 | -1 | 28 | 12.9 | 17.7 | 0.23 | 0.51 | 0.25 | 88 | 1019.7 |
| 20260506184030 | 0 | 44 | 9.7 | 14.5 | 0.20 | 0.48 | 0.23 | 88 | 1019.8 |
| 20260506183530 | -1 | 21 | 8.0 | 14.5 | 0.18 | 0.46 | 0.20 | 88 | 1019.7 |
| 20260506183047 | -1 | 32 | 9.7 | 16.1 | 0.15 | 0.43 | 0.18 | 89 | 1019.7 |